[[{"header":{"parameterUnit":"m.s-1","parameterCategory":1,"la1":30.2991,"la2":30.254,"lo1":-89.0895,"lo2":-89.0444,"dy":0.0017,"dx":0.0017,"nx":28,"ny":28,"refTime":"2024-06-10T03:00:00:Z","depth":0,"parameterNumber":2,"parameterNumberName":"U-component_of_WINDS"},"data":[0,0,0,0,0,0,0,0,0,0,0,0,0,0,0,0,0,0,0,0,0,0,0,0,0,0,0,0,0,0,0,0,0,0,0,0,0,0,0,0,0,0,0,0,0,0,0,0,0,0,0,0,0,0,0,0,0,0,2.0794,2.0796,0,2.0945,2.0947,2.0948,2.0973,2.0972,2.0971,2.0969,2.1124,2.1129,2.1134,0,0,0,0,0,0,0,0,0,0,0,0,0,2.0526,2.0531,2.0794,2.0796,2.0798,2.0945,2.0947,2.0949,2.0973,2.0972,2.097,2.0969,2.1122,2.1128,2.1134,0,0,0,0,0,0,0,0,0,0,0,0,0,2.0656,2.0532,2.0794,2.0828,2.0832,2.0944,2.0947,2.0949,2.0974,2.0972,2.097,2.0968,2.112,2.1127,2.1135,2.1223,0,0,2.116,2.1163,0,0,0,0,0,0,0,0,2.0649,2.0666,2.0821,2.0826,2.0831,2.0938,2.0909,2.1041,2.0974,2.092,2.0969,2.0967,2.1063,2.1076,2.1108,2.1231,2.1237,2.116,2.1165,2.1169,2.1171,0,0,0,0,0,0,0,2.064,2.066,2.0854,2.0823,2.0829,2.0835,2.0851,2.0934,2.1001,2.0925,2.0927,2.0944,2.1066,2.1101,2.1112,2.124,2.116,2.1167,2.1172,2.1175,2.1439,2.1441,0,0,0,0,0,0,2.0625,2.0652,2.0849,2.0858,2.0733,2.0841,2.086,2.0906,2.1,2.1013,2.0946,2.0945,2.1088,2.1103,2.1118,2.1225,2.1169,2.1176,2.1181,2.1437,2.144,2.1442,0,0,0,0,0,0,2.0619,2.0642,2.0843,2.0756,2.0782,2.0848,2.09,2.091,2.0945,2.1016,2.1028,2.0969,2.1087,2.1107,2.1196,2.1231,2.118,2.1187,2.1434,2.1438,2.1441,2.1442,0,0,0,0,0,0,2.0611,2.064,2.0674,2.0756,2.0786,2.0919,2.0902,2.0914,2.0958,2.0959,2.1041,2.1053,2.1087,2.1184,2.1204,2.1241,2.1193,2.1431,2.1436,2.144,2.1439,2.1445,2.145,0,0,0,0,0,2.0601,2.0669,2.0676,2.07,2.0831,2.0921,2.0939,2.0976,2.0961,2.0996,2.1041,2.105,2.1224,2.1193,2.1216,2.1256,2.1429,2.1435,2.1439,2.1437,2.1444,2.145,0,0,0,0,0,0,2.059,2.0681,2.0689,2.0786,2.0846,2.0925,2.0971,2.0983,2.1049,2.1046,2.109,2.1109,2.1196,2.1235,2.1199,2.1345,2.1326,2.1335,2.1316,2.1323,2.1328,2.1317,2.12,0,0,0,0,0,2.0599,2.0665,2.0741,2.0818,2.0848,2.0904,2.0945,2.0969,2.1033,2.1058,2.111,2.1171,2.124,2.1284,2.1351,2.1445,2.1463,2.1484,2.1489,2.1493,2.1501,2.1551,2.1561,2.1458,2.1458,2.1458,0,0,2.0618,2.0675,2.0715,2.0818,2.0867,2.0933,2.0925,2.0997,2.1046,2.1069,2.1156,2.1197,2.1268,2.136,2.1403,2.1395,2.1533,2.1499,2.1502,2.1508,2.1557,2.1567,2.1576,2.1462,2.1461,2.1461,0,0,2.0686,2.0737,2.0806,2.0855,2.0929,2.0966,2.0982,2.106,2.1088,2.1176,2.1194,2.1253,2.1371,2.142,2.146,2.1545,2.1555,2.1566,2.1593,2.1642,2.165,2.1658,2.1686,2.1696,2.1573,2.1573,2.1573,0,2.0699,2.0801,2.084,2.091,2.0954,2.0977,2.1047,2.1093,2.1185,2.1215,2.1205,2.1351,2.1401,2.1503,2.1524,2.1556,2.1575,2.1556,2.1646,2.1654,2.1661,2.1689,2.1699,2.1574,2.1574,2.1574,2.1574,0,2.0813,2.0883,2.093,2.1018,2.1068,2.1137,2.1186,2.1231,2.125,2.1288,2.1376,2.1437,2.1515,2.1541,2.1561,2.1646,2.1639,2.1637,2.1618,2.1671,2.1697,2.1708,2.1575,2.1575,2.1574,2.1574,0,0,2.0879,2.0986,2.1003,2.1042,2.1125,2.1179,2.1249,2.1326,2.1363,2.1425,2.1484,2.1582,2.158,2.1626,2.1651,2.1694,2.1755,2.1687,2.1689,2.1696,2.185,2.1849,2.1861,2.1762,2.1764,2.1766,2.1843,0,2.0955,2.1081,2.1117,2.1223,2.1287,2.1309,2.1369,2.1426,2.1462,2.1521,2.1562,2.1629,2.1623,2.165,2.1694,2.1738,2.1786,2.1733,2.1816,2.1818,2.1796,2.1875,2.1876,2.1946,2.1854,2.1856,2.1857,0,2.1061,2.1125,2.1236,2.1309,2.1337,2.1391,2.1463,2.152,2.1584,2.1607,2.1657,2.1679,2.1751,2.1729,2.1829,2.1792,2.1828,2.1854,2.1858,2.1866,2.184,2.1884,2.1969,2.1979,2.1874,2.1873,2.1871,0,2.1095,2.1209,2.129,2.1323,2.1411,2.1447,2.1486,2.1548,2.1591,2.1654,2.1681,2.1752,2.179,2.1844,2.1883,2.1864,2.1979,2.196,2.1999,2.1998,2.2021,2.2019,2.2112,2.2047,2.2047,2.2047,2.2046,0,2.1176,2.1243,2.1306,2.1356,2.1431,2.1471,2.1544,2.1583,2.1638,2.1695,2.1719,2.1772,2.1821,2.188,2.1911,2.1987,2.2005,2.2025,2.2032,2.2022,2.2019,2.2046,2.2041,2.2049,2.2049,2.2048,2.2048,0,2.1227,2.1272,2.1361,2.1436,2.1456,2.1508,2.1572,2.162,2.1657,2.1728,2.1747,2.1805,2.1875,2.192,2.201,2.2031,2.2114,2.2121,2.2092,2.2095,2.213,2.2126,2.2242,2.2259,2.2184,2.2184,2.2185,0,2.1275,2.1327,2.1407,2.1446,2.1484,2.1548,2.1591,2.1633,2.1677,2.1753,2.1792,2.1864,2.1923,2.2034,2.2084,2.2152,2.2159,2.2196,2.217,2.2157,2.2158,2.2154,2.2158,2.2199,2.22,2.22,2.2201,0,2.1354,2.1374,2.1435,2.1505,2.1556,2.1612,2.1669,2.17,2.1751,2.1799,2.1871,2.1917,2.2008,2.2078,2.2151,2.2189,2.2203,2.2209,2.2221,2.221,2.2191,2.22,2.2102,2.2206,2.2205,2.2205,2.2204,2.2204,2.1404,2.145,2.1513,2.1581,2.1627,2.1679,2.1727,2.177,2.183,2.1907,2.1928,2.2003,2.2064,2.2162,2.2202,2.2261,2.2256,2.2274,2.2278,2.2282,2.2281,2.2182,2.2274,2.2274,2.2274,2.2274,2.2274,0,2.1483,2.1524,2.1586,2.1664,2.1716,2.1725,2.1787,2.1831,2.1896,2.1952,2.2009,2.2091,2.2159,2.2213,2.2283,2.2319,2.2327,2.2335,2.2333,2.2341,2.2283,2.2264,2.2328,2.2328,2.2328,2.2328,2.2328,2.2328,2.1531,2.1608,2.1635,2.1735,2.1776,2.1849,2.1884,2.1931,2.1976,2.2065,2.2122,2.2156,2.2211,2.2285,2.2347,2.2361,2.2385,2.2392,2.2407,2.2351,2.2345,2.2339,2.2322,2.2397,2.2397,2.246,2.2461,2.2461]},{"header":{"parameterUnit":"m.s-1","parameterCategory":1,"la1":30.2991,"la2":30.254,"lo1":-89.0895,"lo2":-89.0444,"dy":0.0017,"dx":0.0017,"nx":28,"ny":28,"refTime":"2024-06-10T03:00:00:Z","depth":0,"parameterNumber":3,"parameterNumberName":"V-component_of_WINDS"},"data":[0,0,0,0,0,0,0,0,0,0,0,0,0,0,0,0,0,0,0,0,0,0,0,0,0,0,0,0,0,0,0,0,0,0,0,0,0,0,0,0,0,0,0,0,0,0,0,0,0,0,0,0,0,0,0,0,0,0,3.5707,3.5708,0,3.578,3.5781,3.5782,3.5747,3.5745,3.5743,3.5741,3.581,3.5813,3.5817,0,0,0,0,0,0,0,0,0,0,0,0,0,3.553,3.5533,3.5707,3.5708,3.5709,3.578,3.5781,3.5782,3.5747,3.5745,3.5742,3.574,3.5808,3.5813,3.5817,0,0,0,0,0,0,0,0,0,0,0,0,0,3.5605,3.5534,3.5707,3.57,3.57,3.578,3.5781,3.5782,3.5747,3.5745,3.5742,3.5739,3.5807,3.5812,3.5817,3.5906,0,0,3.5834,3.5836,0,0,0,0,0,0,0,0,3.5601,3.5611,3.57,3.5701,3.5701,3.5751,3.5743,3.5823,3.5748,3.5729,3.5741,3.5738,3.5792,3.5798,3.5818,3.5909,3.5912,3.5834,3.5837,3.584,3.5841,0,0,0,0,0,0,0,3.5596,3.5608,3.5736,3.5701,3.5702,3.5691,3.5698,3.5758,3.5775,3.5731,3.5728,3.5738,3.5792,3.5813,3.5819,3.5913,3.5834,3.5839,3.5842,3.5844,3.6077,3.608,0,0,0,0,0,0,3.5591,3.5604,3.5733,3.5738,3.5643,3.5696,3.5705,3.5738,3.5774,3.5777,3.574,3.5736,3.5805,3.5813,3.5822,3.5926,3.584,3.5845,3.5848,3.6074,3.6078,3.6081,0,0,0,0,0,0,3.5588,3.5603,3.573,3.567,3.5686,3.5702,3.574,3.5741,3.5762,3.5782,3.5784,3.5759,3.5803,3.5814,3.5885,3.5928,3.5847,3.5852,3.607,3.6075,3.6079,3.6136,0,0,0,0,0,0,3.5583,3.5602,3.5638,3.5671,3.5689,3.5795,3.5742,3.5744,3.5772,3.5767,3.58,3.5803,3.5802,3.5877,3.589,3.5934,3.5856,3.6067,3.6073,3.6078,3.6131,3.6142,3.6152,0,0,0,0,0,3.5577,3.565,3.564,3.5656,3.5734,3.5798,3.5807,3.5807,3.5776,3.581,3.5822,3.5802,3.5921,3.5885,3.5899,3.5945,3.6064,3.6071,3.6077,3.6126,3.614,3.6152,0,0,0,0,0,0,3.562,3.5655,3.5644,3.5731,3.5762,3.5792,3.5836,3.5822,3.5861,3.5854,3.585,3.5857,3.5931,3.5945,3.5904,3.6031,3.5987,3.5997,3.6019,3.6033,3.6043,3.6038,3.586,0,0,0,0,0,3.564,3.5691,3.5717,3.5791,3.5808,3.5819,3.5846,3.5843,3.5874,3.5886,3.5904,3.5933,3.5976,3.6005,3.6047,3.6132,3.6138,3.6171,3.6181,3.619,3.6198,3.6242,3.6257,3.6103,3.6103,3.6103,0,0,3.5681,3.5706,3.5738,3.5801,3.5824,3.5874,3.583,3.5885,3.5922,3.5894,3.5962,3.5976,3.6007,3.6086,3.6121,3.61,3.6242,3.6199,3.6205,3.6209,3.6251,3.6265,3.6278,3.6108,3.6107,3.6106,0,0,3.5781,3.5807,3.5871,3.5895,3.5932,3.5939,3.5954,3.5986,3.5994,3.6063,3.6043,3.6084,3.616,3.6183,3.6205,3.6312,3.6294,3.6325,3.6381,3.6424,3.6436,3.6447,3.6484,3.6497,3.6334,3.6334,3.6334,0,3.5827,3.5905,3.5904,3.5961,3.5988,3.5967,3.603,3.6053,3.61,3.6118,3.6094,3.6188,3.6208,3.629,3.6316,3.6335,3.635,3.6322,3.6435,3.6446,3.6456,3.6491,3.6505,3.6338,3.6337,3.6337,3.6336,0,3.5958,3.6012,3.6058,3.6107,3.6139,3.6198,3.6204,3.6236,3.6229,3.6238,3.6306,3.633,3.6375,3.6394,3.6387,3.6475,3.646,3.6436,3.6392,3.6474,3.6507,3.652,3.6343,3.6341,3.634,3.6339,0,0,3.6089,3.6136,3.6153,3.6174,3.6212,3.6252,3.6309,3.6354,3.6381,3.6414,3.646,3.6524,3.6501,3.6526,3.6521,3.6559,3.6641,3.653,3.653,3.6549,3.6736,3.6753,3.6769,3.6629,3.6631,3.6633,3.6733,0,3.6192,3.6295,3.6295,3.6388,3.6436,3.6416,3.6465,3.6492,3.6501,3.6541,3.6549,3.6595,3.6562,3.6576,3.6613,3.6623,3.6678,3.6616,3.6669,3.6671,3.6662,3.6787,3.6806,3.6899,3.6746,3.6748,3.6749,0,3.6325,3.6364,3.6463,3.6492,3.6512,3.6557,3.6598,3.6637,3.6666,3.667,3.6697,3.6686,3.6741,3.6696,3.677,3.6728,3.675,3.6758,3.6761,3.6766,3.6715,3.6793,3.6928,3.6942,3.677,3.6768,3.6767,0,3.6409,3.6486,3.6554,3.6573,3.6609,3.6641,3.6657,3.6684,3.671,3.6745,3.6762,3.6802,3.6823,3.6854,3.6853,3.682,3.6928,3.6883,3.693,3.693,3.6954,3.6952,3.7093,3.6969,3.6969,3.6968,3.6968,0,3.6523,3.6584,3.6593,3.6635,3.6701,3.67,3.6765,3.6777,3.6801,3.6843,3.6827,3.6866,3.6864,3.6903,3.6902,3.6963,3.6973,3.6975,3.6975,3.6977,3.6976,3.699,3.6984,3.6972,3.6971,3.6971,3.697,0,3.6629,3.6637,3.671,3.6739,3.6747,3.6795,3.6817,3.6856,3.6863,3.6916,3.6929,3.6939,3.6984,3.6986,3.7038,3.7037,3.7111,3.7103,3.7102,3.71,3.7147,3.7142,3.7301,3.7321,3.7185,3.7186,3.7187,0,3.6701,3.6747,3.6781,3.6809,3.6827,3.6873,3.69,3.6899,3.6927,3.6963,3.6997,3.7041,3.7076,3.7148,3.7158,3.7197,3.7189,3.7243,3.7195,3.7195,3.7189,3.7186,3.7189,3.7252,3.7253,3.7254,3.7255,0,3.6827,3.6829,3.687,3.6913,3.6946,3.6979,3.7009,3.7032,3.7034,3.7067,3.7114,3.7141,3.7194,3.7236,3.7274,3.7287,3.7271,3.727,3.7283,3.7285,3.7282,3.7283,3.7126,3.7267,3.7265,3.7265,3.7264,3.7264,3.6917,3.6957,3.6987,3.7032,3.7055,3.7084,3.7121,3.7133,3.7173,3.7217,3.7213,3.7264,3.7289,3.7338,3.7355,3.7393,3.7374,3.7393,3.7398,3.7402,3.7407,3.7277,3.74,3.7399,3.7399,3.7399,3.7399,0,3.7042,3.706,3.7102,3.7146,3.7181,3.7164,3.7196,3.7226,3.7272,3.7298,3.7333,3.7385,3.7426,3.744,3.7479,3.7507,3.75,3.7517,3.7514,3.7517,3.7422,3.7406,3.7522,3.7522,3.7522,3.7522,3.7522,3.7522,3.7111,3.7177,3.7181,3.7257,3.7274,3.7325,3.7345,3.737,3.739,3.745,3.7485,3.7494,3.7514,3.7554,3.759,3.7593,3.7607,3.7627,3.7627,3.7537,3.7524,3.7513,3.7498,3.7631,3.7631,3.7719,3.772,3.772]}]]